Weather History for KLMT - March, 2014

Change the Weather History Date:

Wednesday, March 19, 2014

  Actual Average Record
Temperature  
Mean Temperature 40 °F 39 °F  
Max Temperature 60 °F 51 °F 72 °F (1960)
Min Temperature 19 °F 27 °F 15 °F (1994)
Degree Days  
Heating Degree Days 25 26  
Month to date heating degree days 420 514  
Since 1 July heating degree days 5203 5355  
Cooling Degree Days 0 0  
Month to date cooling degree days 0 0  
Year to date cooling degree days 0 0  
Moisture  
Dew Point 21 °F    
Average Humidity 51    
Maximum Humidity 81    
Minimum Humidity 23    
Precipitation  
Precipitation 0.00 in 0.04 in 0.61 in (1953)
Month to date precipitation 1.36 0.72  
Year to date precipitation 4.01 4.49  
Sea Level Pressure  
Sea Level Pressure 30.11 in    
Wind  
Wind Speed 6 mph (West)    
Max Wind Speed 22 mph    
Max Gust Speed 26 mph    
Visibility 10 miles    
Events      
T = Trace of Precipitation, MM = Missing Value Source: NWS Daily Summary

Daily Weather History Graph

Daily Weather History Graph

Search for Another Location

Airport or City:

Trip Planner

Search our weather history database for the weather conditions in past years. The results will help you decide how hot, cold, wet, or windy it might be!

Date:

Astronomy

Mar. 19, 2014 Rise Set
Actual Time 7:11 AM PDT 7:18 PM PDT
Civil Twilight 6:43 AM PDT 7:46 PM PDT
Nautical Twilight 6:11 AM PDT 8:18 PM PDT
Astronomical Twilight 5:37 AM PDT 8:52 PM PDT
Moon 10:46 PM PDT (3/19) 8:37 AM PDT (3/19)
Length of Visible Light 13h 02m
Length of Day
12h 06m
Waning Gibbous, 90% of the Moon is Illuminated
Mar 19
Waning Gibbous
Mar 23
Last Quarter
Mar 30
New
Apr 7
First Quarter
Apr 15
Full

Hourly Weather History & Observations

Time (PDT) Temp. Windchill Dew Point Humidity Pressure Visibility Wind Dir Wind Speed Gust Speed Precip Events Conditions
12:53 AM 28.9 °F - 18.0 °F 64% 30.11 in 10.0 mi Calm Calm - N/A   Clear
1:53 AM 30.9 °F - 23.0 °F 72% 30.10 in 10.0 mi Calm Calm - N/A   Clear
2:53 AM 26.1 °F 19.4 °F 18.0 °F 71% 30.10 in 10.0 mi East 5.8 mph - N/A   Clear
3:53 AM 23.0 °F - 17.1 °F 78% 30.09 in 10.0 mi Calm Calm - N/A   Clear
4:53 AM 21.0 °F - 16.0 °F 81% 30.09 in 10.0 mi Calm Calm - N/A   Clear
5:53 AM 23.0 °F - 17.1 °F 78% 30.10 in 10.0 mi Calm Calm - N/A   Clear
6:53 AM 21.9 °F 17.2 °F 15.1 °F 75% 30.12 in 10.0 mi East 3.5 mph - N/A   Clear
7:53 AM 24.1 °F 19.7 °F 17.1 °F 75% 30.16 in 10.0 mi NNE 3.5 mph - N/A   Clear
8:53 AM 35.1 °F - 21.9 °F 59% 30.16 in 10.0 mi Calm Calm - N/A   Clear
9:53 AM 39.9 °F - 21.0 °F 47% 30.17 in 10.0 mi Calm Calm - N/A   Clear
10:53 AM 44.1 °F 41.5 °F 19.9 °F 38% 30.15 in 10.0 mi SSW 4.6 mph - N/A   Clear
11:53 AM 46.9 °F - 19.9 °F 34% 30.13 in 10.0 mi Calm Calm - N/A   Clear
12:53 PM 51.1 °F - 21.0 °F 31% 30.14 in 10.0 mi South 5.8 mph - N/A   Clear
1:53 PM 55.0 °F - 19.9 °F 25% 30.10 in 10.0 mi WSW 4.6 mph - N/A   Clear
2:53 PM 57.0 °F - 21.9 °F 26% 30.09 in 10.0 mi SSW 10.4 mph - N/A   Clear
3:53 PM 59.0 °F - 21.0 °F 23% 30.07 in 10.0 mi SW 11.5 mph 24.2 mph N/A   Clear
4:53 PM 59.0 °F - 21.9 °F 24% 30.08 in 10.0 mi WSW 16.1 mph - N/A   Clear
5:53 PM 55.9 °F - 19.9 °F 25% 30.08 in 10.0 mi West 17.3 mph - N/A   Clear
6:53 PM 52.0 °F - 18.0 °F 26% 30.10 in 10.0 mi WNW 10.4 mph - N/A   Clear
7:53 PM 46.9 °F - 21.0 °F 36% 30.11 in 10.0 mi NW 11.5 mph - N/A   Clear
8:53 PM 45.0 °F 41.2 °F 25.0 °F 46% 30.10 in 10.0 mi NW 6.9 mph - N/A   Clear
9:53 PM 44.1 °F 39.0 °F 25.0 °F 47% 30.10 in 10.0 mi WNW 9.2 mph - N/A   Clear
10:53 PM 43.0 °F 38.2 °F 33.1 °F 68% 30.11 in 10.0 mi WNW 8.1 mph - N/A   Clear
11:53 PM 39.9 °F - 30.9 °F 70% 30.12 in 10.0 mi Calm Calm - N/A   Clear